STARLINK-5660, 55335

Orbit data source: Space-Track

STARLINK-5660, 55335 is a payload satellite owned by SpaceX/Seattle (US) in LEO that was launched on Thu, 26 Jan 2023 UTC via an FALCON 9 launch vehicle from the Air Force Eastern Test Range (AFETR). Payload-class satellites include a variety of spacecraft equipped with specific instruments for various scientific and technological missions. These include communications satellites like Starlink; space stations such as the ISS; scientific satellites like the Hubble; Earth observation satellites from companies like Planet Labs, Umbra, and HawkEye 360; GPS; miniature CubeSats for education and research; and military/defense satellites.

Loading next visibility...
Identifier
55335, 2023-013E
Orbit
LEO
Country
Flag of USUS
Related business
Manufacturer
SpaceX/Seattle
Mission
Operational Commercial Communications
Bus & Motor
STARLINK, Unknown motor
Mass
305 kg wet, ~290 kg dry
Launch date (UTC)
2023-01-26 (3 years ago)
Launch vehicle
FALCON 9
Launch site
Air Force Eastern Test Range (AFETR)
Object type
Payload
Rocket body
Debris
Shape & HBR
Box + 1 Pan, 10.1 m
Radar Cross Section
13.562 m², Large (>1 m²)

Expand to show TLE details & history
Last TLE update: 2 days ago

TLE from 2 days ago
0 STARLINK-5660
1 55335U 23013E   25348.24981015 -.00003936  00000-0 -27649-3 0  9996
2 55335  43.0056  44.8827 0001331 254.3519 105.7176 15.02534258158850
Epoch: 2025-12-14T05:59Z
TLE epoch observation values (Epoch: 2025-12-14T05:59:43.596Z)
Latitude
-0.00008°
Longitude
-128.21446°
Altitude
559.114 km
Speed
7.584 km/s
True Right ascension
02h 59m 31s
True Declination
0° 00' 00"
Sunlit
Object was in full shadow at epoch
Visualization orbit readout
Latitude
Unknown
Longitude
Unknown
Altitude
Unknown
Speed
Unknown
Apparent Right ascension
Unknown
Apparent Declination
Unknown
Sunlit
N/A
Visualization observer readout
Local Sidereal Time
17:05:14
Azimuth
Unknown
Elevation
Unknown
Doppler factor
Unknown
Orbital elements
Apogee altitude
561.932 km
Perigee altitude
560.084 km
Semi-major axis
6,939.145 km
Eccentricity
0.00013
Inclination
43.0056°
RAAN
44.8827°
Arg. of periapsis
254.3519°
True anomaly
105.73228°
Mean anomaly
105.7176°
Eccentric anomaly
105.72494°
Mean motion
3.75478 °/min
Orbital period
95.88 mins
BSTAR
-0.00027649
Loading maneuver chart data...
Computing Atmospheric mass density...
Loading historical data...
Loading historical data...
Loading historical data...
Loading historical data...
Loading historical data...
Loading historical data...
Loading historical data...

Documentation

Showing up to 5 results
|